[[{"header":{"parameterUnit":"m.s-1","parameterCategory":1,"la1":30.2991,"la2":30.254,"lo1":-89.0895,"lo2":-89.0444,"dy":0.0017,"dx":0.0017,"nx":28,"ny":28,"refTime":"2025-12-10T03:00:00:Z","depth":0,"parameterNumber":2,"parameterNumberName":"U-component_of_WINDS"},"data":[0,0,0,0,0,0,0,0,0,0,0,0,0,0,0,0,0,0,0,0,0,0,0,0,0,0,0,0,0,0,0,0,0,0,0,0,0,0,0,0,0,0,0,0,0,0,0,0,0,0,0,0,0,0,0,0,0,0,-0.1679,-0.1679,0,-0.1695,-0.1695,-0.1696,-0.1689,-0.1689,-0.1689,-0.1688,-0.1706,-0.1707,-0.1708,0,0,0,0,0,0,0,0,0,0,0,0,0,-0.1645,-0.1646,-0.1679,-0.1679,-0.1679,-0.1695,-0.1695,-0.1696,-0.1689,-0.1689,-0.1689,-0.1688,-0.1706,-0.1707,-0.1708,0,0,0,0,0,0,0,0,0,0,0,0,0,-0.1661,-0.1646,-0.1679,-0.1678,-0.1678,-0.1695,-0.1695,-0.1696,-0.169,-0.1689,-0.1688,-0.1688,-0.1706,-0.1707,-0.1708,-0.1727,0,0,-0.1712,-0.1712,0,0,0,0,0,0,0,0,-0.166,-0.1662,-0.1678,-0.1678,-0.1678,-0.169,-0.169,-0.1706,-0.169,-0.1685,-0.1688,-0.1688,-0.1701,-0.1703,-0.1707,-0.1728,-0.1729,-0.1712,-0.1713,-0.1713,-0.1714,0,0,0,0,0,0,0,-0.1659,-0.1661,-0.1685,-0.1678,-0.1679,-0.1678,-0.1679,-0.1693,-0.1696,-0.1686,-0.1685,-0.1687,-0.1701,-0.1706,-0.1708,-0.1729,-0.1712,-0.1713,-0.1714,-0.1714,-0.1768,-0.1768,0,0,0,0,0,0,-0.1657,-0.166,-0.1685,-0.1686,-0.1667,-0.1679,-0.1681,-0.1687,-0.1696,-0.1697,-0.1688,-0.1687,-0.1704,-0.1706,-0.1708,-0.1732,-0.1713,-0.1714,-0.1715,-0.1767,-0.1768,-0.1769,0,0,0,0,0,0,-0.1657,-0.166,-0.1684,-0.1673,-0.1676,-0.168,-0.1687,-0.1687,-0.1692,-0.1698,-0.1698,-0.1692,-0.1704,-0.1706,-0.1723,-0.1733,-0.1715,-0.1716,-0.1766,-0.1767,-0.1768,-0.1779,0,0,0,0,0,0,-0.1656,-0.1659,-0.1666,-0.1673,-0.1677,-0.1698,-0.1687,-0.1688,-0.1694,-0.1693,-0.1702,-0.1703,-0.1703,-0.1721,-0.1724,-0.1734,-0.1717,-0.1765,-0.1767,-0.1768,-0.1778,-0.1781,-0.1783,0,0,0,0,0,-0.1654,-0.1669,-0.1666,-0.1669,-0.1685,-0.1698,-0.1701,-0.1701,-0.1695,-0.1702,-0.1706,-0.1702,-0.1731,-0.1722,-0.1726,-0.1737,-0.1765,-0.1766,-0.1768,-0.1777,-0.178,-0.1783,0,0,0,0,0,0,-0.1663,-0.1669,-0.1667,-0.1684,-0.1691,-0.1697,-0.1706,-0.1704,-0.1713,-0.1712,-0.1712,-0.1715,-0.1732,-0.1736,-0.1726,-0.1756,-0.1747,-0.1749,-0.1753,-0.1756,-0.1758,-0.1757,-0.1718,0,0,0,0,0,-0.1666,-0.1676,-0.1682,-0.1696,-0.1699,-0.1702,-0.1708,-0.1708,-0.1715,-0.1718,-0.1723,-0.1731,-0.1742,-0.1749,-0.1759,-0.1779,-0.1781,-0.1788,-0.179,-0.1792,-0.1794,-0.1806,-0.181,-0.1774,-0.1773,-0.1773,0,0,-0.1674,-0.1679,-0.1685,-0.1698,-0.1703,-0.1714,-0.1705,-0.1716,-0.1725,-0.172,-0.1736,-0.174,-0.1749,-0.1767,-0.1775,-0.1771,-0.1805,-0.1794,-0.1795,-0.1797,-0.1808,-0.1812,-0.1815,-0.1775,-0.1774,-0.1774,0,0,-0.1694,-0.1698,-0.1711,-0.1717,-0.1725,-0.1727,-0.173,-0.1737,-0.174,-0.1756,-0.1753,-0.1763,-0.1781,-0.1788,-0.1794,-0.1818,-0.1816,-0.1821,-0.1834,-0.1845,-0.1848,-0.1851,-0.1861,-0.1864,-0.1823,-0.1823,-0.1823,0,-0.1703,-0.1719,-0.1718,-0.1731,-0.1737,-0.1733,-0.1747,-0.1752,-0.1763,-0.1768,-0.1763,-0.1787,-0.1792,-0.1813,-0.1818,-0.1823,-0.1828,-0.182,-0.1848,-0.185,-0.1853,-0.1862,-0.1866,-0.1824,-0.1824,-0.1824,-0.1824,0,-0.173,-0.1741,-0.1751,-0.1762,-0.1769,-0.1782,-0.1784,-0.1792,-0.1791,-0.1794,-0.1811,-0.1817,-0.1829,-0.1834,-0.1833,-0.1855,-0.1852,-0.1847,-0.1838,-0.1857,-0.1866,-0.1869,-0.1825,-0.1825,-0.1825,-0.1824,0,0,-0.1756,-0.1767,-0.177,-0.1776,-0.1785,-0.1794,-0.1807,-0.1818,-0.1825,-0.1833,-0.1846,-0.1862,-0.1857,-0.1864,-0.1864,-0.1874,-0.1895,-0.1869,-0.1869,-0.1874,-0.192,-0.1925,-0.1929,-0.1893,-0.1893,-0.1894,-0.192,0,-0.1778,-0.1801,-0.1801,-0.1822,-0.1833,-0.183,-0.1842,-0.1849,-0.1852,-0.1863,-0.1866,-0.1878,-0.1871,-0.1875,-0.1885,-0.189,-0.1904,-0.1888,-0.1905,-0.1906,-0.1904,-0.1933,-0.1938,-0.1962,-0.1923,-0.1924,-0.1924,0,-0.1806,-0.1815,-0.1838,-0.1846,-0.1851,-0.1861,-0.1872,-0.1882,-0.1891,-0.1892,-0.19,-0.1899,-0.1914,-0.1904,-0.1925,-0.1914,-0.1921,-0.1925,-0.1926,-0.1928,-0.1917,-0.1938,-0.1969,-0.1974,-0.193,-0.1929,-0.1929,0,-0.1825,-0.1842,-0.1858,-0.1862,-0.1872,-0.188,-0.1885,-0.1893,-0.19,-0.191,-0.1915,-0.1926,-0.1933,-0.1943,-0.1945,-0.1938,-0.1967,-0.1957,-0.197,-0.197,-0.1977,-0.1977,-0.2012,-0.198,-0.198,-0.198,-0.198,0,-0.1849,-0.1864,-0.1866,-0.1876,-0.1893,-0.1893,-0.1909,-0.1913,-0.1921,-0.1932,-0.193,-0.1941,-0.1943,-0.1955,-0.1957,-0.1975,-0.1978,-0.1981,-0.1981,-0.1982,-0.1981,-0.1987,-0.1986,-0.1981,-0.198,-0.198,-0.198,0,-0.1873,-0.1875,-0.1893,-0.19,-0.1903,-0.1914,-0.1922,-0.1932,-0.1935,-0.1949,-0.1953,-0.1958,-0.1972,-0.1975,-0.1992,-0.1993,-0.2015,-0.2014,-0.2012,-0.2012,-0.2026,-0.2025,-0.2067,-0.2073,-0.2036,-0.2036,-0.2036,0,-0.1889,-0.19,-0.1909,-0.1916,-0.1921,-0.1933,-0.194,-0.1942,-0.195,-0.1961,-0.197,-0.1983,-0.1994,-0.2017,-0.2023,-0.2036,-0.2035,-0.2049,-0.2037,-0.2038,-0.2037,-0.2037,-0.2039,-0.2051,-0.2052,-0.2052,-0.2052,0,-0.1918,-0.1919,-0.1929,-0.1941,-0.195,-0.1959,-0.1967,-0.1974,-0.1976,-0.1986,-0.2,-0.2008,-0.2025,-0.2039,-0.2052,-0.2058,-0.2056,-0.2056,-0.206,-0.2061,-0.206,-0.2062,-0.2019,-0.2055,-0.2055,-0.2055,-0.2055,-0.2054,-0.194,-0.1949,-0.1958,-0.197,-0.1976,-0.1985,-0.1995,-0.1999,-0.2011,-0.2024,-0.2024,-0.204,-0.205,-0.2067,-0.2074,-0.2087,-0.2083,-0.2088,-0.209,-0.2091,-0.2093,-0.2057,-0.2089,-0.2089,-0.2089,-0.2089,-0.2089,0,-0.197,-0.1975,-0.1986,-0.1998,-0.2008,-0.2004,-0.2014,-0.2023,-0.2037,-0.2045,-0.2056,-0.2073,-0.2087,-0.2094,-0.2107,-0.2117,-0.2116,-0.212,-0.212,-0.2122,-0.2095,-0.2091,-0.2121,-0.2121,-0.2121,-0.2121,-0.2121,-0.2121,-0.1987,-0.2004,-0.2006,-0.2026,-0.2031,-0.2046,-0.2052,-0.206,-0.2068,-0.2086,-0.2097,-0.2102,-0.211,-0.2125,-0.2138,-0.2139,-0.2145,-0.215,-0.2152,-0.2127,-0.2124,-0.2121,-0.2117,-0.2151,-0.2151,-0.2177,-0.2178,-0.2178]},{"header":{"parameterUnit":"m.s-1","parameterCategory":1,"la1":30.2991,"la2":30.254,"lo1":-89.0895,"lo2":-89.0444,"dy":0.0017,"dx":0.0017,"nx":28,"ny":28,"refTime":"2025-12-10T03:00:00:Z","depth":0,"parameterNumber":3,"parameterNumberName":"V-component_of_WINDS"},"data":[0,0,0,0,0,0,0,0,0,0,0,0,0,0,0,0,0,0,0,0,0,0,0,0,0,0,0,0,0,0,0,0,0,0,0,0,0,0,0,0,0,0,0,0,0,0,0,0,0,0,0,0,0,0,0,0,0,0,3.3879,3.3879,0,3.3926,3.3926,3.3927,3.3887,3.3885,3.3884,3.3882,3.3928,3.3931,3.3933,0,0,0,0,0,0,0,0,0,0,0,0,0,3.375,3.3753,3.3879,3.3879,3.388,3.3926,3.3926,3.3927,3.3887,3.3885,3.3883,3.3881,3.3927,3.393,3.3934,0,0,0,0,0,0,0,0,0,0,0,0,0,3.3803,3.3754,3.3879,3.3866,3.3865,3.3926,3.3927,3.3927,3.3888,3.3885,3.3883,3.388,3.3926,3.393,3.3934,3.401,0,0,3.3947,3.3949,0,0,0,0,0,0,0,0,3.38,3.3807,3.3867,3.3867,3.3866,3.3898,3.3898,3.3955,3.3888,3.3879,3.3882,3.3879,3.392,3.3924,3.3939,3.4012,3.4014,3.3947,3.395,3.3952,3.3953,0,0,0,0,0,0,0,3.3796,3.3805,3.3897,3.3868,3.3867,3.3856,3.3861,3.3909,3.3913,3.388,3.3877,3.3883,3.3919,3.3935,3.3939,3.4014,3.3947,3.3951,3.3953,3.3955,3.4149,3.4151,0,0,0,0,0,0,3.3794,3.3802,3.3896,3.3899,3.3826,3.386,3.3866,3.389,3.3912,3.3913,3.3885,3.3881,3.3929,3.3935,3.3941,3.4028,3.3952,3.3955,3.3958,3.4146,3.4149,3.4152,0,0,0,0,0,0,3.3792,3.3803,3.3894,3.385,3.3861,3.3865,3.3893,3.3892,3.3908,3.3916,3.3917,3.3901,3.3927,3.3935,3.3992,3.4029,3.3957,3.3961,3.4143,3.4147,3.4151,3.4205,0,0,0,0,0,0,3.3788,3.3802,3.3832,3.3851,3.3863,3.3946,3.3896,3.3895,3.3916,3.3911,3.3931,3.3932,3.3926,3.3986,3.3996,3.4034,3.3964,3.4139,3.4145,3.4149,3.42,3.4211,3.422,0,0,0,0,0,3.3784,3.3846,3.3834,3.3845,3.39,3.3948,3.3955,3.3947,3.3919,3.3948,3.3953,3.3931,3.4024,3.3993,3.4004,3.4043,3.4137,3.4143,3.4149,3.4196,3.4209,3.4219,0,0,0,0,0,0,3.3831,3.3848,3.3835,3.3905,3.3925,3.3941,3.3978,3.3962,3.399,3.3984,3.3973,3.3978,3.4038,3.4046,3.4011,3.4115,3.4076,3.4084,3.4108,3.412,3.4129,3.4125,3.3968,0,0,0,0,0,3.385,3.3888,3.39,3.3961,3.3972,3.3973,3.3994,3.3986,3.4006,3.4015,3.4024,3.4044,3.4077,3.4099,3.413,3.4202,3.4204,3.4234,3.4244,3.4252,3.4258,3.4294,3.4306,3.4172,3.4172,3.4171,0,0,3.3888,3.3902,3.3927,3.3971,3.3986,3.4024,3.3981,3.4024,3.4051,3.4021,3.4075,3.4082,3.4104,3.4167,3.4196,3.4176,3.4296,3.4259,3.4265,3.4268,3.4301,3.4314,3.4325,3.4176,3.4175,3.4174,0,0,3.3978,3.3994,3.4044,3.406,3.4083,3.4083,3.4096,3.4114,3.4117,3.4172,3.4149,3.4181,3.424,3.4255,3.427,3.4364,3.4344,3.4374,3.4425,3.4459,3.447,3.4479,3.451,3.4522,3.4382,3.4382,3.4382,0,3.4023,3.4081,3.4073,3.4116,3.4135,3.411,3.416,3.4175,3.4207,3.422,3.4198,3.4269,3.4282,3.4347,3.437,3.4384,3.4396,3.4371,3.4469,3.4478,3.4487,3.4516,3.4528,3.4385,3.4385,3.4384,3.4384,0,3.4133,3.4174,3.4212,3.4243,3.4266,3.4313,3.4311,3.4335,3.4325,3.4327,3.4381,3.4395,3.4428,3.4443,3.4435,3.4507,3.4494,3.4471,3.443,3.4503,3.453,3.4542,3.439,3.4389,3.4388,3.4387,0,0,3.4254,3.4279,3.4293,3.4306,3.4329,3.4359,3.4404,3.4436,3.4456,3.4479,3.4514,3.4564,3.4542,3.4559,3.4552,3.4583,3.4652,3.4555,3.4555,3.4571,3.473,3.4746,3.4759,3.464,3.4642,3.4644,3.4728,0,3.4343,3.4421,3.4414,3.4488,3.4524,3.4499,3.4538,3.4555,3.4558,3.4588,3.4591,3.4625,3.4595,3.4604,3.4634,3.4638,3.4684,3.4632,3.4671,3.4673,3.4665,3.4774,3.4791,3.487,3.4739,3.4741,3.4742,0,3.4457,3.4483,3.456,3.4575,3.459,3.4625,3.4653,3.4682,3.47,3.47,3.4719,3.4705,3.4749,3.4709,3.4767,3.4731,3.4747,3.4751,3.4754,3.4755,3.471,3.4777,3.4895,3.4906,3.4759,3.4758,3.4756,0,3.4534,3.4589,3.4641,3.4653,3.4673,3.4698,3.4707,3.4723,3.4742,3.4766,3.4777,3.4807,3.4822,3.4844,3.4838,3.4809,3.4896,3.4856,3.4895,3.4895,3.4913,3.4912,3.5033,3.4927,3.4927,3.4927,3.4927,0,3.4632,3.468,3.4676,3.4708,3.476,3.4751,3.4802,3.4808,3.4822,3.4854,3.4835,3.4865,3.4856,3.4885,3.4881,3.4928,3.4935,3.4935,3.4933,3.4935,3.4935,3.4944,3.4938,3.493,3.4929,3.4929,3.4928,0,3.4727,3.4726,3.4781,3.4795,3.48,3.4837,3.4848,3.4877,3.4879,3.4919,3.4927,3.4929,3.4962,3.4958,3.4996,3.4992,3.505,3.5043,3.5044,3.5042,3.508,3.5075,3.521,3.5226,3.5111,3.5113,3.5113,0,3.4789,3.4825,3.4842,3.4862,3.4873,3.4905,3.4924,3.4917,3.4937,3.4959,3.4985,3.5017,3.5041,3.5095,3.5098,3.5126,3.5117,3.5163,3.5121,3.5122,3.5115,3.5112,3.5115,3.517,3.5171,3.5173,3.5173,0,3.4898,3.4895,3.4924,3.4952,3.4975,3.4997,3.5016,3.5033,3.5027,3.5051,3.5084,3.5103,3.514,3.5171,3.5197,3.5205,3.5187,3.5187,3.5197,3.5199,3.5197,3.5196,3.5064,3.5183,3.5182,3.5181,3.5181,3.5181,3.4976,3.5006,3.5022,3.5054,3.5068,3.5086,3.5113,3.5118,3.5146,3.5175,3.5169,3.5206,3.5221,3.5254,3.5265,3.5293,3.5276,3.5291,3.5295,3.5298,3.5301,3.5194,3.5298,3.5297,3.5297,3.5297,3.5297,0,3.5082,3.5091,3.5121,3.5148,3.5172,3.5155,3.5175,3.5196,3.5229,3.5245,3.5269,3.5307,3.5336,3.5341,3.5368,3.5389,3.5382,3.5397,3.5394,3.5395,3.5316,3.5303,3.5402,3.5402,3.5402,3.5402,3.5402,3.5402,3.514,3.5189,3.5188,3.5242,3.525,3.5287,3.5299,3.5315,3.5328,3.537,3.5394,3.5398,3.5409,3.5436,3.5462,3.5462,3.5472,3.549,3.5487,3.5412,3.5401,3.5391,3.5379,3.5492,3.5492,3.5564,3.5564,3.5565]}]]